This is the latest recevied weather packets stored in our database for station/object AI9F. If no packets are shown the sender has not sent any weather packets the latest 10 day(s).
| Time | Temp. | Humidity | Pressure | Rain* | Wind** | Luminosity | Snow |
|---|---|---|---|---|---|---|---|
| 1777859701 | 15.56° C | 53% | 1010.8 hPa | 0 mm | - | 0 W/m² | - |
| 1777859397 | 16.11° C | 52% | 1010.7 hPa | 0 mm | - | 0 W/m² | - |
| 1777859093 | 16.11° C | 52% | 1010.7 hPa | 0 mm | - | 0 W/m² | - |
| 1777858790 | 16.67° C | 50% | 1010.8 hPa | 0 mm | - | 0 W/m² | - |
| 1777858489 | 16.67° C | 49% | 1010.8 hPa | 0 mm | - | 0 W/m² | - |
| 1777858184 | 16.67° C | 49% | 1010.8 hPa | 0 mm | - | 0 W/m² | - |
| 1777857883 | 16.67° C | 49% | 1010.7 hPa | 0 mm | - | 0 W/m² | - |
| 1777857580 | 16.67° C | 49% | 1010.7 hPa | 0 mm | - | 0 W/m² | - |
| 1777857276 | 16.67° C | 50% | 1010.8 hPa | 0 mm | - | 0 W/m² | - |
| 1777856972 | 16.67° C | 51% | 1011.1 hPa | 0 mm | - | 0 W/m² | - |
| 1777856668 | 16.67° C | 51% | 1011 hPa | 0 mm | - | 0 W/m² | - |
| 1777856365 | 17.22° C | 50% | 1010.8 hPa | 0 mm | - | 0 W/m² | - |
| 1777856061 | 17.22° C | 46% | 1010.9 hPa | 0 mm | - | 1 W/m² | - |
| 1777855759 | 17.22° C | 46% | 1011 hPa | 0 mm | - | 2 W/m² | - |
| 1777855457 | 17.78° C | 48% | 1011 hPa | 0 mm | - | 4 W/m² | - |
| 1777855153 | 17.78° C | 47% | 1010.8 hPa | 0 mm | - | 7 W/m² | - |
| 1777854850 | 17.78° C | 47% | 1010.8 hPa | 0 mm | - | 10 W/m² | - |
| 1777854546 | 18.33° C | 45% | 1010.8 hPa | 0 mm | - | 15 W/m² | - |
| 1777854243 | 18.33° C | 45% | 1011 hPa | 0 mm | - | 20 W/m² | - |
| 1777853941 | 18.33° C | 45% | 1011.2 hPa | 0 mm | - | 24 W/m² | - |
| 1777853638 | 18.89° C | 44% | 1011.3 hPa | 0 mm | - | 29 W/m² | - |
| 1777853335 | 18.89° C | 43% | 1011.6 hPa | 0 mm | - | 33 W/m² | - |
| 1777853032 | 19.44° C | 41% | 1011.5 hPa | 0 mm | - | 36 W/m² | - |
| 1777852729 | 19.44° C | 39% | 1011.6 hPa | 0 mm | - | 43 W/m² | - |
| 1777852427 | 20° C | 38% | 1011.8 hPa | 0 mm | - | 49 W/m² | - |
* Rain latest hour (hover to see other rain measurements)
** Current wind speed in m/s (hover to see current wind gust speed)